Location: NCO
(38.4404°N, 77.1340°W)
Time: 20:32:27
(UTC-04:00)

Hubble Space Telescope - Visible Passes

Search period start: 18 July 2018 00:00
Search period end: 28 July 2018 00:00
Orbit: 537 x 541 km, 28.5° (Epoch: 18 July)

Date Brightness Start Highest point End Pass type
(mag) Time Alt. Az. Time Alt. Az. Time Alt. Az.
18 Jul 2.9 03:56:28 14° SSE 03:56:28 14° SSE 03:57:46 10° SE visible
19 Jul 3.0 03:46:41 13° SE 03:46:41 13° SE 03:47:31 10° SE visible
19 Jul 2.4 05:22:16 10° SW 05:25:17 20° S 05:28:17 10° SE visible
20 Jul 3.3 03:36:58 11° SE 03:36:58 11° SE 03:37:11 10° SE visible
20 Jul 2.4 05:12:20 12° SW 05:14:50 19° S 05:17:43 10° SE visible
21 Jul 2.4 05:02:44 14° SW 05:04:22 17° S 05:07:06 10° SSE visible
22 Jul 2.5 04:53:17 15° SSW 04:53:54 16° SSW 04:56:25 10° SSE visible
23 Jul 2.7 04:43:59 14° S 04:43:59 14° S 04:45:36 10° SSE visible
